Flag for U.S.A. Weather past 2 weeks in Hialeah, Florida, U.S.A.

Now
88 °F

Passing clouds.


Feels Like: 96 °F
Forecast: 76 / 88 °F
Wind: 12 mph from South

Location: Opa Locka Airport

Current Time: Apr 25, 2015 at 6:00:53 PM

Latest Report: Apr 25, 2015 at 4:53 PM


Visibility: 10 mi

Pressure: 29.85 "Hg

Humidity: 61%

Dew point: 73 °F

Location of HialeahLocation

Historic Weather in Hialeah — Graph

°F

Hialeah temperature yesterday

Maximum temperature yesterday: 91 °F (at 3:53 PM)
Minimum temperature yesterday: 73 °F (at 3:53 AM)
Average temperature yesterday: 81 °F

Past Weeks' High & Low Weather Summary

 TemperatureHumidityPressure
High91 °F (Apr 24, 3:53 PM)97% (Apr 24, 3:53 AM)30.18 "Hg (Apr 24, 3:53 AM)
Low73 °F (Apr 23, 6:53 AM)45% (Apr 19, 2:53 PM)29.84 "Hg (Apr 20, 4:53 PM)
Average80 °F73%30.02 "Hg
* Reported Apr 10 4:53 PM — Apr 25 4:03 PM, Hialeah, Weather by CustomWeather, © 2015

Note: Actual official high and low records may vary slightly from our data, if they occured in-between our weather recording intervals... More about our weather records

Advertising

Hialeah weather history for previous 24 hours

 ConditionsComfort  
Time TempWeatherWind HumidityBarometerVisibility
4:03 PM
Sat, Apr 25
84 °FScattered clouds.16 mph67%29.86 "Hg10 mi
3:53 PM87 °FThundershowers. Passing clouds.18 mph67%29.86 "Hg10 mi
2:53 PM87 °FLight rain. Mostly cloudy.6 mph69%29.89 "Hg10 mi
1:53 PM89 °FBroken clouds.8 mph63%29.92 "Hg10 mi
12:53 PM88 °FBroken clouds.12 mph63%29.94 "Hg10 mi
11:53 AM87 °FPartly sunny.12 mph63%29.96 "Hg10 mi
10:53 AM87 °FScattered clouds.12 mph61%29.96 "Hg10 mi
9:53 AM84 °FPassing clouds.10 mph67%29.96 "Hg10 mi
8:53 AM82 °FSunny.15 mph74%29.95 "Hg10 mi
7:53 AM79 °FPassing clouds.6 mph82%29.95 "Hg10 mi
6:53 AM75 °FClear.3 mph88%29.94 "Hg10 mi
5:53 AM76 °FPassing clouds.No wind85%29.93 "Hg10 mi
4:53 AM76 °FClear.5 mph85%29.92 "Hg10 mi
3:53 AM76 °FClear.3 mph85%29.92 "Hg10 mi
2:53 AM77 °FClear.5 mph82%29.93 "Hg10 mi
1:53 AM78 °FPassing clouds.7 mph79%29.96 "Hg10 mi
12:53 AM79 °FOvercast.6 mph77%29.98 "Hg10 mi
11:53 PM
Fri, Apr 24
79 °FPartly cloudy.3 mph79%29.99 "Hg10 mi
11:02 PM79 °FPassing clouds.8 mph77%29.98 "Hg10 mi
10:53 PM80 °FPassing clouds.6 mph74%29.98 "Hg10 mi
9:53 PM80 °FPassing clouds.5 mph74%29.98 "Hg10 mi
8:53 PM81 °FPassing clouds.8 mph72%29.96 "Hg10 mi
7:53 PM81 °FSunny.14 mph74%29.94 "Hg10 mi
6:53 PM83 °FScattered clouds.13 mph72%29.94 "Hg10 mi
Weather by CustomWeather, © 2015

See weather overviewHow to use our weather pages